�������l�o���
Date,Time,MP-1(��Sv/h),MP-2(��Sv/h),MP-3(��Sv/h),MP-4(��Sv/h),MP-5(��Sv/h),MP-6(��Sv/h),MP-7(��Sv/h),MP-8(��Sv/h),����,����(m/s),���J
2024/06/19,00:00,0.492,0.748,0.474,0.930,0.679,0.312,0.547,0.503,�k��,5.1,��
2024/06/19,00:10,0.489,0.746,0.476,0.930,0.678,0.312,0.547,0.504,�k��,4.1,��
2024/06/19,00:20,0.489,0.746,0.474,0.931,0.678,0.310,0.546,0.503,�k��,3.7,��
2024/06/19,00:30,0.490,0.747,0.477,0.929,0.679,0.311,0.546,0.504,�k��,4.4,��
2024/06/19,00:40,0.491,0.746,0.475,0.930,0.677,0.310,0.546,0.505,�k��,4.2,��
2024/06/19,00:50,0.489,0.746,0.475,0.930,0.676,0.312,0.547,0.504,�k��,4.3,��
2024/06/19,01:00,0.489,0.747,0.476,0.930,0.678,0.311,0.546,0.503,�k��,3.9,��
2024/06/19,01:10,0.488,0.747,0.475,0.929,0.678,0.312,0.547,0.504,�k��,4.8,��
2024/06/19,01:20,0.491,0.747,0.475,0.931,0.678,0.311,0.546,0.505,�k��,4.7,��
2024/06/19,01:30,0.489,0.748,0.475,0.930,0.678,0.311,0.548,0.505,�k��,4.8,��
2024/06/19,01:40,0.488,0.745,0.475,0.933,0.677,0.310,0.547,0.505,�k��,5.0,��
2024/06/19,01:50,0.489,0.744,0.475,0.930,0.679,0.311,0.547,0.504,�k��,5.3,��
2024/06/19,02:00,0.489,0.746,0.474,0.931,0.678,0.311,0.548,0.505,�k��,5.8,��
2024/06/19,02:10,0.489,0.748,0.475,0.931,0.677,0.310,0.548,0.506,�k�k��,4.4,��
2024/06/19,02:20,0.489,0.746,0.474,0.931,0.677,0.311,0.548,0.505,�k��,3.7,��
2024/06/19,02:30,0.489,0.747,0.474,0.931,0.677,0.311,0.547,0.504,�k��,4.0,��
2024/06/19,02:40,0.490,0.747,0.475,0.931,0.678,0.310,0.546,0.506,�k��,4.6,��
2024/06/19,02:50,0.490,0.748,0.475,0.931,0.677,0.310,0.547,0.505,�k��,4.5,��
2024/06/19,03:00,0.489,0.747,0.474,0.931,0.677,0.310,0.548,0.506,�k��,5.0,��
2024/06/19,03:10,0.488,0.747,0.476,0.932,0.678,0.313,0.547,0.506,�k��,5.0,��
2024/06/19,03:20,0.490,0.746,0.476,0.932,0.676,0.311,0.546,0.504,���k��,4.4,��
2024/06/19,03:30,0.491,0.748,0.475,0.930,0.678,0.311,0.547,0.506,���k��,3.5,��
2024/06/19,03:40,0.488,0.746,0.475,0.933,0.677,0.311,0.546,0.505,�k��,3.9,��
2024/06/19,03:50,0.488,0.747,0.475,0.933,0.677,0.310,0.547,0.506,���k��,3.6,��
2024/06/19,04:00,0.488,0.748,0.475,0.932,0.678,0.311,0.547,0.505,�k��,4.8,��
2024/06/19,04:10,0.490,0.746,0.474,0.931,0.677,0.311,0.546,0.505,�k��,4.6,��
2024/06/19,04:20,0.488,0.747,0.475,0.932,0.677,0.311,0.549,0.504,�k��,3.5,��
2024/06/19,04:30,0.489,0.745,0.474,0.932,0.676,0.311,0.546,0.505,�k�k��,4.1,��
2024/06/19,04:40,0.489,0.746,0.476,0.933,0.678,0.309,0.547,0.504,�k��,3.7,��
2024/06/19,04:50,0.488,0.745,0.475,0.932,0.678,0.310,0.547,0.504,���k��,3.5,��
2024/06/19,05:00,0.489,0.747,0.476,0.933,0.676,0.309,0.546,0.504,���k��,4.2,��
2024/06/19,05:10,0.487,0.748,0.475,0.933,0.677,0.311,0.547,0.505,���k��,3.7,��
2024/06/19,05:20,0.489,0.749,0.475,0.931,0.678,0.311,0.546,0.505,���k��,4.0,��
2024/06/19,05:30,0.488,0.747,0.475,0.935,0.678,0.311,0.548,0.505,�k��,4.3,��
2024/06/19,05:40,0.488,0.749,0.474,0.931,0.678,0.311,0.546,0.505,�k��,3.9,��
2024/06/19,05:50,0.490,0.750,0.474,0.932,0.678,0.309,0.545,0.505,�k��,3.1,��
2024/06/19,06:00,0.491,0.749,0.475,0.934,0.678,0.310,0.547,0.506,���k��,3.1,��
2024/06/19,06:10,0.490,0.747,0.474,0.934,0.679,0.311,0.547,0.505,���k��,2.6,��
2024/06/19,06:20,0.489,0.746,0.475,0.932,0.677,0.310,0.547,0.504,���k��,2.6,��
2024/06/19,06:30,0.487,0.745,0.474,0.934,0.677,0.310,0.548,0.505,�k��,1.7,��
2024/06/19,06:40,0.489,0.744,0.474,0.934,0.675,0.309,0.548,0.506,�k��,1.5,��
2024/06/19,06:50,0.488,0.745,0.474,0.934,0.676,0.310,0.547,0.505,���k��,1.9,��
2024/06/19,07:00,0.487,0.745,0.474,0.932,0.677,0.310,0.546,0.506,���k��,1.7,��
2024/06/19,07:10,0.488,0.745,0.474,0.933,0.678,0.310,0.548,0.505,�k��,0.9,��
2024/06/19,07:20,0.488,0.745,0.474,0.931,0.678,0.308,0.547,0.507,�k��,0.9,��
2024/06/19,07:30,0.489,0.746,0.476,0.935,0.677,0.309,0.546,0.505,��,1.5,��
2024/06/19,07:40,0.490,0.749,0.476,0.934,0.676,0.309,0.548,0.504,���k��,1.5,��
2024/06/19,07:50,0.490,0.748,0.475,0.935,0.676,0.307,0.546,0.504,���k��,1.1,��
2024/06/19,08:00,0.489,0.746,0.475,0.935,0.676,0.308,0.546,0.504,�k�k��,0.6,��
2024/06/19,08:10,0.490,0.749,0.475,0.934,0.677,0.308,0.548,0.503,���k��,1.2,��
2024/06/19,08:20,0.490,0.746,0.475,0.933,0.677,0.310,0.545,0.504,���k��,2.2,��
2024/06/19,08:30,0.490,0.749,0.476,0.933,0.678,0.309,0.546,0.506,��쐼,0.6,��
2024/06/19,08:40,0.493,0.749,0.477,0.936,0.677,0.310,0.547,0.503,��,0.9,��
2024/06/19,08:50,0.489,0.752,0.475,0.934,0.678,0.310,0.545,0.503,-,CALM,��
2024/06/19,09:00,0.492,0.752,0.477,0.933,0.679,0.310,0.546,0.504,���k��,1.4,��
2024/06/19,09:10,0.490,0.753,0.477,0.935,0.679,0.310,0.547,0.504,�k��,3.3,��
2024/06/19,09:20,0.492,0.751,0.478,0.933,0.681,0.311,0.547,0.505,-,CALM,��
2024/06/19,09:30,0.489,0.751,0.478,0.934,0.680,0.310,0.549,0.505,�쓌,1.2,��
2024/06/19,09:40,0.492,0.751,0.478,0.934,0.679,0.310,0.548,0.506,��,1.9,��
2024/06/19,09:50,0.493,0.752,0.476,0.934,0.681,0.309,0.547,0.505,��,2.0,��
2024/06/19,10:00,0.494,0.754,0.478,0.935,0.680,0.310,0.549,0.506,��,2.2,��
2024/06/19,10:10,0.494,0.754,0.480,0.934,0.682,0.311,0.547,0.505,��,2.2,��
2024/06/19,10:20,0.494,0.754,0.479,0.933,0.681,0.310,0.549,0.505,��,2.2,��
2024/06/19,10:30,0.494,0.755,0.477,0.935,0.682,0.310,0.549,0.507,���쓌,1.7,��
2024/06/19,10:40,0.495,0.757,0.476,0.934,0.683,0.313,0.547,0.505,���쓌,2.3,��
2024/06/19,10:50,0.494,0.755,0.480,0.935,0.685,0.310,0.547,0.506,��,3.1,��
2024/06/19,11:00,0.494,0.757,0.478,0.937,0.684,0.311,0.547,0.507,��,2.8,��
2024/06/19,11:10,0.495,0.755,0.481,0.935,0.683,0.311,0.548,0.507,��,2.5,��
2024/06/19,11:20,0.495,0.759,0.479,0.933,0.684,0.311,0.547,0.508,��,2.9,��
2024/06/19,11:30,0.495,0.757,0.479,0.934,0.685,0.311,0.548,0.507,��,3.4,��
2024/06/19,11:40,0.497,0.758,0.480,0.936,0.686,0.310,0.548,0.507,��,3.7,��
2024/06/19,11:50,0.494,0.758,0.481,0.936,0.684,0.312,0.548,0.506,���쓌,3.4,��
2024/06/19,12:00,0.497,0.758,0.481,0.935,0.685,0.311,0.549,0.507,�쓌,4.5,��
2024/06/19,12:10,0.497,0.760,0.480,0.936,0.687,0.311,0.548,0.508,��쓌,5.5,��
2024/06/19,12:20,0.497,0.760,0.481,0.936,0.685,0.311,0.550,0.508,��쓌,5.5,��
2024/06/19,12:30,0.497,0.760,0.482,0.936,0.689,0.312,0.548,0.509,��쓌,5.0,��
2024/06/19,12:40,0.498,0.760,0.482,0.937,0.685,0.311,0.548,0.508,��쓌,5.2,��
2024/06/19,12:50,0.498,0.762,0.482,0.938,0.689,0.312,0.549,0.507,��쓌,5.7,��
2024/06/19,13:00,0.497,0.762,0.481,0.939,0.687,0.312,0.548,0.508,��쓌,5.1,��
2024/06/19,13:10,0.497,0.760,0.483,0.940,0.688,0.311,0.549,0.507,��쓌,6.1,��
2024/06/19,13:20,0.498,0.758,0.483,0.938,0.688,0.313,0.549,0.506,��쓌,6.7,��
2024/06/19,13:30,0.499,0.761,0.482,0.939,0.686,0.312,0.549,0.507,��쓌,5.4,��
2024/06/19,13:40,0.498,0.762,0.482,0.938,0.690,0.313,0.549,0.508,��쓌,7.3,��
2024/06/19,13:50,0.498,0.764,0.483,0.939,0.688,0.313,0.550,0.507,��쓌,6.2,��
2024/06/19,14:00,0.499,0.762,0.482,0.940,0.691,0.312,0.550,0.508,��쓌,5.4,��
2024/06/19,14:10,0.499,0.764,0.483,0.939,0.688,0.311,0.550,0.508,��쓌,6.5,��
2024/06/19,14:20,0.499,0.761,0.484,0.940,0.689,0.313,0.549,0.507,��,5.8,��
2024/06/19,14:30,0.498,0.763,0.483,0.941,0.691,0.314,0.549,0.509,��쓌,5.8,��
2024/06/19,14:40,0.499,0.763,0.483,0.941,0.691,0.313,0.549,0.509,��쓌,5.8,��
2024/06/19,14:50,0.499,0.764,0.483,0.942,0.692,0.314,0.549,0.508,��쓌,6.1,��
2024/06/19,15:00,0.500,0.765,0.484,0.941,0.689,0.312,0.550,0.508,��쓌,6.6,��
2024/06/19,15:10,0.499,0.764,0.483,0.942,0.691,0.313,0.548,0.507,��쓌,6.8,��
2024/06/19,15:20,0.499,0.766,0.484,0.944,0.690,0.313,0.549,0.508,��,6.6,��
2024/06/19,15:30,0.500,0.765,0.485,0.944,0.690,0.314,0.547,0.508,��,7.2,��
2024/06/19,15:40,0.499,0.762,0.483,0.944,0.693,0.314,0.549,0.507,��쓌,7.1,��
2024/06/19,15:50,0.499,0.762,0.482,0.943,0.692,0.313,0.548,0.507,��,6.6,��
2024/06/19,16:00,0.500,0.765,0.484,0.945,0.692,0.313,0.547,0.508,��쓌,7.1,��
2024/06/19,16:10,0.499,0.765,0.485,0.944,0.692,0.313,0.549,0.508,��,6.0,��
2024/06/19,16:20,0.501,0.765,0.483,0.945,0.691,0.312,0.549,0.507,��쓌,4.7,��
2024/06/19,16:30,0.500,0.766,0.484,0.946,0.690,0.313,0.550,0.507,��,6.1,��
2024/06/19,16:40,0.501,0.765,0.484,0.946,0.692,0.313,0.548,0.507,��,6.3,��
2024/06/19,16:50,0.501,0.766,0.484,0.945,0.691,0.313,0.547,0.507,��,6.3,��
2024/06/19,17:00,0.499,0.767,0.484,0.945,0.693,0.313,0.547,0.507,��,6.2,��
2024/06/19,17:10,0.501,0.767,0.486,0.943,0.694,0.314,0.549,0.506,��,5.1,��
2024/06/19,17:20,0.499,0.766,0.484,0.945,0.694,0.312,0.549,0.508,��,6.4,��
2024/06/19,17:30,0.500,0.767,0.484,0.946,0.693,0.313,0.548,0.508,��,7.7,��
2024/06/19,17:40,0.500,0.766,0.484,0.948,0.695,0.313,0.549,0.506,��쓌,9.4,��
2024/06/19,17:50,0.499,0.765,0.484,0.946,0.695,0.312,0.548,0.509,��,7.6,��
2024/06/19,18:00,0.499,0.764,0.483,0.946,0.697,0.313,0.546,0.507,��,8.0,��
2024/06/19,18:10,0.502,0.766,0.484,0.946,0.696,0.314,0.547,0.508,��,6.3,��
2024/06/19,18:20,0.499,0.765,0.483,0.946,0.695,0.313,0.547,0.509,��,5.1,��
2024/06/19,18:30,0.499,0.768,0.484,0.948,0.697,0.313,0.547,0.508,��쓌,5.8,��
2024/06/19,18:40,0.500,0.768,0.483,0.948,0.695,0.313,0.546,0.509,��,6.8,��
2024/06/19,18:50,0.500,0.767,0.484,0.947,0.695,0.315,0.547,0.508,��,7.3,��
2024/06/19,19:00,0.500,0.767,0.483,0.948,0.696,0.313,0.548,0.510,��,7.5,��
2024/06/19,19:10,0.498,0.768,0.482,0.945,0.695,0.314,0.548,0.509,��,7.3,��
2024/06/19,19:20,0.499,0.767,0.483,0.946,0.697,0.315,0.548,0.508,��,6.2,��
2024/06/19,19:30,0.499,0.769,0.485,0.947,0.697,0.316,0.547,0.510,��,6.7,��
2024/06/19,19:40,0.502,0.767,0.485,0.948,0.696,0.314,0.548,0.509,��,7.1,��
2024/06/19,19:50,0.502,0.767,0.485,0.948,0.697,0.315,0.549,0.511,��,7.5,��
2024/06/19,20:00,0.501,0.768,0.485,0.949,0.695,0.314,0.550,0.510,��쐼,5.7,��
2024/06/19,20:10,0.501,0.769,0.486,0.949,0.695,0.314,0.549,0.510,��쐼,4.8,��
2024/06/19,20:20,0.500,0.770,0.487,0.950,0.695,0.315,0.551,0.510,��쐼,3.7,��
2024/06/19,20:30,0.502,0.769,0.488,0.950,0.697,0.315,0.548,0.510,��쐼,3.1,��
2024/06/19,20:40,0.501,0.770,0.487,0.950,0.697,0.315,0.550,0.510,��쐼,2.6,��
2024/06/19,20:50,0.501,0.769,0.485,0.950,0.696,0.315,0.550,0.510,��,2.9,��
2024/06/19,21:00,0.502,0.769,0.487,0.951,0.696,0.315,0.548,0.509,��쐼,2.8,��
2024/06/19,21:10,0.502,0.770,0.487,0.949,0.697,0.314,0.548,0.509,��쐼,3.3,��
2024/06/19,21:20,0.504,0.771,0.487,0.951,0.695,0.315,0.550,0.509,��쐼,3.0,��
2024/06/19,21:30,0.503,0.769,0.485,0.951,0.694,0.316,0.549,0.509,��쐼,2.3,��
2024/06/19,21:40,0.503,0.770,0.486,0.952,0.697,0.315,0.549,0.508,��쐼,1.7,��
2024/06/19,21:50,0.503,0.768,0.485,0.952,0.697,0.314,0.549,0.509,�쐼,1.5,��
2024/06/19,22:00,0.502,0.767,0.486,0.950,0.695,0.315,0.549,0.509,�쐼,2.2,��
2024/06/19,22:10,0.502,0.768,0.485,0.950,0.695,0.315,0.549,0.510,�쐼,3.0,��
2024/06/19,22:20,0.504,0.767,0.485,0.951,0.696,0.315,0.549,0.508,���쐼,4.0,��
2024/06/19,22:30,0.502,0.768,0.487,0.949,0.697,0.315,0.549,0.508,���쐼,3.7,��
2024/06/19,22:40,0.502,0.768,0.486,0.951,0.696,0.315,0.549,0.508,���쐼,4.1,��
2024/06/19,22:50,0.503,0.768,0.485,0.950,0.697,0.315,0.550,0.508,���쐼,4.7,��
2024/06/19,23:00,0.502,0.769,0.485,0.949,0.696,0.313,0.548,0.510,���쐼,5.9,��
2024/06/19,23:10,0.504,0.770,0.486,0.951,0.697,0.315,0.551,0.510,���쐼,5.9,��
2024/06/19,23:20,0.502,0.769,0.486,0.952,0.694,0.315,0.551,0.510,���쐼,4.4,��
2024/06/19,23:30,0.501,0.770,0.486,0.950,0.693,0.315,0.551,0.510,���쐼,4.7,��
2024/06/19,23:40,0.502,0.769,0.486,0.953,0.697,0.314,0.550,0.510,���쐼,4.5,��
2024/06/19,23:50,0.502,0.769,0.486,0.952,0.695,0.315,0.550,0.509,���쐼,4.5,��
